302  
ASHW40 PHFO 211610  
RWRHI  
 
WEATHER ROUNDUP FOR HAWAII  
NATIONAL WEATHER SERVICE HONOLULU HI  
600 AM HST FRI NOV 21 2014  
 
THIS IS AN AUTOMATED REPORT THAT HAS NOT BEEN QUALITY CONTROLLED.  
 
NOTE..."FAIR" INDICATES FEW OR NO CLOUDS BELOW 12,000 FEET WITH NO  
SIGNIFICANT WEATHER AND/OR S TO VISIBILITY
.  
 
* - THESE SITES REPORT LIMITED FIELDS  
 
HIZ001>004-211700-  
KAUAI-NIIHAU-  
 
CITY SKY/WX TMP DP RH WIND PRES REMARKS
 
LIHUE APT MOCLDY 76 69 79 NE12 30.07R  
PORT ALLEN* N/A 75 N/A N/A E10 N/A  
POIPU* N/A 75 N/A N/A NE7G13 N/A  
PRINCEVILLE* N/A 72 N/A N/A MISG N/A  
KOKOLE POINT* NOT AVBL  
MOLOAA DAIRY* NOT AVBL  
WAIMEA HTS* NOT AVBL  
PUU OPAE* NOT AVBL  
PUU LUA* NOT AVBL  
MAKAHA RIDGE* NOT AVBL  

 
 
HIZ005>011-211700-  
OAHU-  
 
CITY SKY/WX TMP DP RH WIND PRES REMARKS
 
HONOLULU PTCLDY 75 67 76 NE8 30.03R  
KALAELOA CLEAR 70 66 87 CALM 30.05R  
KANEOHE MCB PTCLDY 77 69 76 E6 30.06R  
WHEELER FIELD FAIR 66 64 91 NW3 30.06R  
BELLOWS* NOT AVBL  
KAHUKU* NOT AVBL  
WHEELER* NOT AVBL  
WAIANAE HARBOR NOT AVBL  
DILLINGHAM* N/A 64 63 94 E1 N/A  
KAHUKU TRN* N/A 81 73 78 E9G20 N/A  
KAWAILOA* N/A 72 66 83 E10G18 N/A  
KII* N/A 77 70 78 E16G23 N/A  
MAKUA RANGE* N/A N/A N/A N/A E6G12 N/A  
OAHU FOREST NW NOT AVBL  
SCHOFIELD BRK* N/A 64 63 94 SE1 N/A  
SCHOFIELD S* NOT AVBL  
WAIANAE VLY* NOT AVBL  
KUAOKALA* NOT AVBL  
HONOULIUULI* NOT AVBL  
MOKUOLOE IS* NOT AVBL  
PALEHUA* NOT AVBL  
WAIAWA PHB* NOT AVBL  

 
 
HIZ012>013-211700-  
MOLOKAI-  
 
CITY SKY/WX TMP DP RH WIND PRES REMARKS
 
MOLOKAI AIRPT CLEAR 75 68 78 NE12G21 30.04R  
KALAUPAPA NOT AVBL  
MAKAPULAPAI* NOT AVBL  
MOLOKAI 1* NOT AVBL  
PUU ALII* NOT AVBL  

 
 
HIZ016-211700-  
KAHOOLAWE-  
 
CITY SKY/WX TMP DP RH WIND PRES REMARKS
 
KAHOOLAWE* NOT AVBL  
HAKIOAWA* NOT AVBL  
HONOKANAIA* N/A 75 65 70 N10G18 30.04R  
KANELOA* N/A 75 68 78 NE16G30 29.24S  
KEALIALALO* NOT AVBL  
LUA MAKIKA* NOT AVBL  

 
 
HIZ014>015-211700-  
LANAI-  
 
CITY SKY/WX TMP DP RH WIND PRES REMARKS
 
LANAI CITY PTCLDY 68 63 83 NE6 30.06F  
LANAI 1* NOT AVBL  

 
 
HIZ017>028-211700-  
MAUI-  
 
CITY SKY/WX TMP DP RH WIND PRES REMARKS
 
KAHULUI CLEAR 72 66 81 E3 30.03R  
KAPALUA-W MAUI PTCLDY 73 63 68 E10 30.04  
HANA AIRPORT MOCLDY 72 70 94 CALM 30.08S  
HANA* NOT AVBL  
HALEAKALA SUMM N/A 46 0 14 E21 N/A  
MAALAEA BAY* NOT AVBL  
HALEAKALA* NOT AVBL  
KAUPO GAP* NOT AVBL  
KULA 1* N/A N/A N/A N/A E3G9 N/A  

 
 
HIZ023>026-211700-  
BIG ISLAND OF HAWAII COAST AND LOWER SLOPES-  
 
CITY SKY/WX TMP DP RH WIND PRES REMARKS
 
KAILUA KONA CLEAR 73 63 70 E3 30.00R  
HILO LGT RAIN 66 64 93 SW6 30.05R  
HONOKAA* NOT AVBL  
KAWAIHAE MWT* NOT AVBL  
KAWAIHAE* NOT AVBL  
SOUTH POINT* NOT AVBL  
UPOLU AIRPORT* NOT AVBL  
KAMUELA* CLOUDY 64 63 94 NE18 30.12S  
HAKALAU* N/A 43 32 65 SW6 N/A  
KALOKO-HONOKO* NOT AVBL  
PALI 2* N/A 66 57 72 N12G20 N/A  
KEALAKOMO* N/A 79 64 61 N14G26 N/A  
KAUPULEHU* NOT AVBL  
KAPAPALA* N/A 63 55 74 N3 N/A  
LOWER KAHUKU* NOT AVBL  
PUHE CS* NOT AVBL  
PUHO CS* NOT AVBL  
PTA KEAMUKU* N/A 57 50 77 CALM N/A  
WAIKOLOA* NOT AVBL  

 
 
HIZ027>028-211700-  
BIG ISLAND OF HAWAII INTERIOR AND SUMMMITS-  
 
CITY SKY/WX TMP DP RH WIND PRES REMARKS
 
BRADSHAW FIELD CLOUDY 53 25 33 SE6 30.37R  
MK VISITOR CEN NOT AVBL  
MAUNA KEA* N/A 32 -6 19 S20 N/A WCI 20  
MAUNA LOA* NOT AVBL  
MAUNA LOA 1* NOT AVBL  
PTA KIPUKA* N/A 48 39 71 E3 N/A  
PTA RANGE 17* N/A 55 48 76 E10G16 N/A  
PTA WEST* N/A 63 48 59 SE18G26 N/A  
NENE CABIN* NOT AVBL  
AHUMOA* NOT AVBL  
PTA PORTABLE* NOT AVBL  
PUU MALI* NOT AVBL  

 
 
HIC003-211700-  
NORTHWEST ISLANDS-  
 
CITY SKY/WX TMP DP RH WIND PRES REMARKS
 
MIDWAY ISLAND CLOUDY 70 59 68 NE9 30.13F  
MIDWAY NOS* NOT AVBL  
FRENCH FRIGATE NOT AVBL  

 
 
PHZ110>124-180-211700-  
BUOY REPORTS  
 
STATION/POSITION TIME TEMP WIND PRES WAVE SWELL
 
AIR SEA DIR/SP/G HT/PER HT/DIR  
(UTC) (F) (DEG/KT/KT) (MB) (FT/S) (FT/D)  
BUOY 51001 NOT AVBL  
BUOY 51101 1600 77 79 30/ 10/ 12 1018.2F 6/ 8 5/100  
BUOY 51100 1600 78 78 120/ 17 1019.5R  
BUOY 51003 1500 80 81 70/ 16/ 19 1015.5F 7/12 7  
BUOY 51004 1504 79 80 70/ 19/ 21 1014.5 9/ 9 5/ 80  
BARBERS PT BUOY NOT AVBL  
WAIMEA BAY BUOY 1600 80 N/A 5/13 3/310  
KAILUA BAY BUOY 1600 79 N/A 7/ 8 2  
LANAI BUOY 1600 80 N/A 3/13 2/250  
BARBERS PT 2 1600 80 N/A 5/13 3/300  
PAUWELA MAUI 1600 79 N/A 7/ 8  
HILO 1600 79 N/A 7/ 9 3/340  
KANEOHE BAY BUOY 1600 79 N/A 6/ 8 2/ 10  
HANALEI KAUAI NOT AVBL  
KAHULUI HARBOR 1600 76 78 10/ 8/ 11 1016.9R  
HONOLULU HARBOR 1600 77 CALM / 2 1017.4R  
KILO NALU NOT AVBL  
HILO HARBOR 1600 69 200/ 3/ 4 1017.0R  
MOKUOLOE 1600 78 1018.0R  
NAWILIWILI 1600 81 N/A  
WHOTS BUOY NOT AVBL  
BUOY 51028 NOT AVBL  

 
   
.....................KEY.....................................
 
 
SKY/WX - SKY CONDITIONS/PRESENT WEATHER  
TMP - TEMPERATURE IN FAHRENHEIT  
DWPT - DEWPOINT IN FAHRENHEIT  
RH - RELATIVE HUMIDITY IN PERCENT  
WIND - DIRECTION AND SPEED /MPH FOR ISLANDS...KTS FOR BUOYS/  
PRES - MEAN SEA LEVEL PRESSURE IN INCHES OF HG  
VSB - VISIBILITY IN MILES  
HX - HEAT INDEX  
WCI - WIND CHILL INDEX  
VRB - VARIABLE WIND DIRECTION  
N/A - NOT AVAILABLE  
 
CLICK HERE TO GO TO PREVIOUS BULLETINS.

The Nexlab HI Page Main Text Page